Skip Navigation Links weather.gov 
NOAA logo-Select to go to the NOAA homepage NDBC Title GraphicClick to go to NDBC home page   Select to go to the NWS homepage
Home About Us Contact Us
 
 
    
    Station List

 Data Access
    Mobile Access
    Classic Maps
         Recent
         DART®
    Obs Search
    Ship Obs Report
    BuoyCAMs
    TAO
    DODS
    OceanSITES
    HF Radar
    OSMC
    Dial-A-Buoy
    RSS Feeds Image indicating link to RSS feed access page
    Web Widget
    Email Access
    Web Data Guide
    Maintenance Schedule
    Station Status Report

 Program Info
    TAO
    DART®
    VOS
    IOOS®

 Publications
    NDBC PEA
    NDBC FONSI
    NDBC DQC Handbook

 FAQ
 Visitor Information
 
USA.gov is the U.S. government's official web portal to all federal, state and local government web resources and services.

The NDBC website is now available via HTTPS. Please update your bookmarks and/or links to use https://www.ndbc.noaa.gov/. On or about 6/26/18, the site will be switched to HTTPS only.

NOTICE! You have reached NDBC's backup site. Most likely there is scheduled network maintenance or a temporary network problem preventing access to the main site. The backup site does not have 100% of the main site's data. Please pay attention to times of observations. Also, some links will be broken if the main web site is not available.

Station SDBC1 - 9410170 - San Diego, CA Image indicating link to RSS feed of recent meteorological observations for station SDBC1

Owned and maintained by NOAA's National Ocean Service
Water Level Observation Network
32.714 N 117.174 W (32°42'51" N 117°10'26" W)

Site elevation: sea level
Barometer elevation: 4.5 m above mean sea level
Sea temp depth: 2.3 m below MLLW

Latest NWS Marine Forecast

Search And Rescue (SAR) Data

Meteorological Observations from Nearby Stations and Ships Image indicating link to RSS feed of recent meteorological observations near station SDBC1

Regional HF Radar Surface Current Observations

Large icon indicates selected station.
yellow diamond Stations with recent data
red diamond Stations with no data in last 8 hours
     (24 hours for tsunami stations)


Conditions at SDBC1 as of
(2:00 pm PDT)
2100 GMT on 06/23/2018:
     

Click on the graph icon in the table below to see a time series plot of the last five days of that observation.

5-day plot - Atmospheric Pressure Atmospheric Pressure (PRES): 29.89 in
5-day plot - Water Temperature Water Temperature (WTMP): 70.0 °F
NOS Water Level Observation Network Water Level
Previous observations
5-day plot - Wind Direction 5-day plot - Wind Speed 5-day plot - Wind Gust 5-day plot - Wave Height 5-day plot - Dominant Wave Period 5-day plot - Average Period 5-day plot - Mean Wave Direction 5-day plot - Atmospheric Pressure 5-day plot - Pressure Tendency 5-day plot - Air Temperature 5-day plot - Water Temperature 5-day plot - Dew Point 5-day plot - Salinity 5-day plot - Visibility 5-day plot - Tide (above MLLW)
MM DD TIME
(PDT)
WDIR WSPD
kts
GST
kts
WVHT
ft
DPD
sec
APD
sec
MWD PRES
in
PTDY
in
ATMP
°F
WTMP
°F
DEWP
°F
SAL
psu
VIS
nmi
TIDE
ft
0623 1:54 pm-------29.89-- 70.0----
0623 1:48 pm-------29.89-- 70.0----
0623 1:42 pm-------29.89-- 70.0----
0623 1:36 pm-------29.89-- 69.8----
0623 1:30 pm-------29.89-- 69.8----
0623 1:24 pm-------29.89-- 69.6----
0623 1:18 pm-------29.89-- 69.4----
0623 1:12 pm-------29.89-- 69.6----
0623 1:06 pm-------29.90-- 69.6----
0623 1:00 pm-------29.90-- 69.3----
062312:54 pm-------29.90-- 69.1----
062312:48 pm-------29.89-- 69.4----
062312:42 pm-------29.90-- 69.6----
062312:36 pm-------29.90-- 69.6----
062312:30 pm-------29.90-- 69.8----
062312:24 pm-------29.89-- 69.8----
062312:18 pm-------29.90-- 69.8----
062312:12 pm-------29.90-- 69.8----
062312:06 pm-------29.90-- 69.8----
062312:00 pm-------29.90-- 69.8----
062311:54 am-------29.90-- 69.6----
062311:48 am-------29.90-- 69.6----
062311:42 am-------29.90-- 69.6----
062311:36 am-------29.90-- 69.6----
062311:30 am-------29.89-- 69.4----
062311:24 am-------29.90-- 69.6----
062311:18 am-------29.89-- 69.6----
0623 3:54 am-------29.80-- 70.3----
0623 3:48 am-------29.80-- 70.3----
0623 3:42 am-------29.80-- 70.5----
0623 3:36 am-------29.80-- 70.3----
0623 3:30 am-------29.80-- 70.0----
0623 3:24 am-------29.80-- 69.6----
0623 3:18 am-------29.80-- 69.4----
0623 3:12 am-------29.80-- 69.4----
0623 3:06 am-------29.80-- 69.6----
0623 3:00 am-------29.80-0.03- 69.4----
0623 2:54 am-------29.80-- 69.6----
0623 2:48 am-------29.80-- 69.6----
0623 2:42 am-------29.80-- 69.6----
0623 2:36 am-------29.80-- 69.6----
0623 2:30 am-------29.80-- 69.4----
0623 2:24 am-------29.80-- 69.4----
0623 2:18 am-------29.80-- 69.8----
0623 2:12 am-------29.80-- 70.3----
0623 2:06 am-------29.81-- 70.5----
0623 2:00 am-------29.81-0.02- 70.3----
0623 1:54 am-------29.81-- 70.3----
0623 1:48 am-------29.81-- 70.3----
0623 1:42 am-------29.81-- 70.3----
0623 1:36 am-------29.81-- 70.3----
0623 1:30 am-------29.81-- 70.3----
0623 1:24 am-------29.81-- 70.5----
0623 1:18 am-------29.81-- 70.3----
0623 1:12 am-------29.81-- 70.2----
0623 1:06 am-------29.82-- 69.4----
0623 1:00 am-------29.82-0.02- 69.4----
062312:54 am-------29.82-- 69.6----
062312:48 am-------29.82-- 69.8----
062312:42 am-------29.82-- 70.2----
062312:30 am-------29.82-- 70.2----
062312:24 am-------29.82-- 69.6----
062312:18 am-------29.82-- 70.0----
062312:12 am-------29.83-- 70.0----
062312:06 am-------29.83-- 69.8----
062312:00 am-------29.83+0.00- 69.8----
062211:54 pm-------29.83-- 69.8----
062211:48 pm-------29.83-- 70.0----
062211:42 pm-------29.83-- 70.2----
062211:36 pm-------29.83-- 70.2----
062211:30 pm-------29.83-- 70.0----
062211:24 pm-------29.83-- 70.0----
062211:18 pm-------29.83-- 69.6----
062211:12 pm-------29.83-- 69.4----
062211:06 pm-------29.83-- 69.1----
062211:00 pm-------29.83+0.01- 68.9----
062210:54 pm-------29.83-- 69.1----
062210:48 pm-------29.83-- 69.4----
062210:42 pm-------29.83-- 68.9----
062210:36 pm-------29.83-- 69.1----
062210:30 pm-------29.84-- 68.7----
062210:24 pm-------29.84-- 68.9----
062210:18 pm-------29.84-- 69.1----
062210:12 pm-------29.84-- 69.8----
062210:06 pm-------29.84-- 69.8----
062210:00 pm-------29.84+0.03- 69.3----
0622 9:54 pm-------29.84-- 70.2----
0622 9:48 pm-------29.84-- 70.0----
0622 9:42 pm-------29.84-- 69.4----
0622 9:36 pm-------29.84-- 69.8----
0622 9:30 pm-------29.84-- 69.4----
0622 9:24 pm-------29.83-- 70.0----
0622 9:18 pm-------29.83-- 69.4----
0622 9:12 pm-------29.83-- 68.7----
0622 9:06 pm-------29.83-- 68.5----
0622 9:00 pm-------29.83+0.02- 68.5----
0622 8:54 pm-------29.83-- 68.4----
0622 8:48 pm-------29.83-- 68.7----
0622 8:42 pm-------29.83-- 68.5----
0622 8:36 pm-------29.82-- 68.4----
0622 8:30 pm-------29.82-- 68.4----
0622 8:24 pm-------29.82-- 68.2----
0622 8:18 pm-------29.82-- 68.2----
0622 8:12 pm-------29.82-- 68.2----
0622 8:06 pm-------29.82-- 68.7----
0622 8:00 pm-------29.82+0.01- 68.9----
0622 7:54 pm-------29.82-- 69.1----
0622 7:48 pm-------29.82-- 69.3----
0622 7:42 pm-------29.82-- 68.7----
0622 7:36 pm-------29.82-- 68.2----
0622 7:30 pm-------29.82-- 68.5----
0622 7:24 pm-------29.82-- 68.5----
0622 7:18 pm-------29.81-- 69.6----
0622 7:12 pm-------29.81-- 69.8----
0622 7:06 pm-------29.81-- 68.2----
0622 7:00 pm-------29.81+0.00- 68.4----
0622 6:54 pm-------29.81-- 68.0----
0622 6:48 pm-------29.81-- 69.6----
0622 6:42 pm-------29.81-- 70.5----
0622 6:36 pm-------29.81-- 70.5----
0622 6:30 pm-------29.81-- 70.2----
0622 6:24 pm-------29.81-- 71.1----
0622 6:18 pm-------29.81-- 70.9----
0622 6:12 pm-------29.81-------
0622 6:06 pm-------29.81-- 71.1----
0622 6:00 pm-------29.81-0.02- 71.1----
0622 5:54 pm-------29.81-- 70.9----
0622 5:48 pm-------29.81-- 70.5----
0622 5:42 pm-------29.81-- 71.1----
0622 5:36 pm-------29.81-- 70.7----
0622 5:30 pm-------29.81-- 71.1----
0622 5:24 pm-------29.81-- 70.9----
0622 5:18 pm-------29.81-- 70.5----
0622 5:12 pm-------29.81-------
0622 5:06 pm-------29.81-- 71.1----
0622 5:00 pm-------29.81-0.03- 71.2----
0622 4:54 pm-------29.81-- 71.2----
0622 4:48 pm-------29.81-- 71.2----
0622 4:42 pm-------29.81-- 71.2----
0622 4:36 pm-------29.81-- 71.4----
0622 4:30 pm-------29.81-- 71.4----
0622 4:24 pm-------29.81-- 71.4----
0622 4:18 pm-------29.81-- 71.4----
0622 4:12 pm-------29.81-- 71.4----
0622 4:06 pm-------29.82-- 71.4----
0622 4:00 pm-------29.82-0.04- 71.4----
0622 3:54 pm-------29.82-- 70.9----
0622 3:48 pm-------29.82-- 70.5----
0622 3:42 pm-------29.82-------
0622 3:36 pm-------29.82-- 70.5----
0622 3:30 pm-------29.82-- 70.7----
0622 3:24 pm-------29.82-- 70.7----
0622 3:18 pm-------29.82-- 71.1----
0622 3:12 pm-------29.83-- 71.1----
0622 3:06 pm-------29.83-- 71.4----
0622 3:00 pm-------29.83-0.05- 71.6----
0622 2:54 pm-------29.83-- 72.0----
0622 2:48 pm-------29.83-- 72.1----
0622 2:42 pm-------29.83-- 72.1----
0622 2:36 pm-------29.83-- 72.1----
0622 2:30 pm-------29.83-- 72.1----
0622 2:24 pm-------29.83-- 72.1----
0622 2:18 pm-------29.83-- 72.1----
0622 2:12 pm-------29.83-- 72.1----
0622 2:06 pm-------29.83-- 72.1----
0622 2:00 pm-------29.84-0.05- 72.1----
0622 1:54 pm-------29.84-- 72.0----

Description of Measurements

Links which are specific to this station are listed below:

Real Time Data in tabular form for the last forty-five days.

Historical Data & Climatic Summaries for quality controlled data for the current month, previous months, and previous years.